Home > Weather > Tucson > Past weeks

Flag for U.S.A. Weather for the Past 2 Weeks in Tucson, Arizona, U.S.A.

Now
48 °F

Clear.


Feels Like: 48 °F
Forecast: 44 / 78 °F
Wind: No wind

Location: Davis-Monthan Air Force Base

Current Time: Feb 8, 2016 at 2:23:54 AM

Latest Report: Feb 8, 2016 at 1:58 AM


Visibility: 10 mi

Pressure: 30.11 "Hg (27.47 "Hg at 758m altitude)

Humidity: 29%

Dew point: 17 °F

Location of TucsonLocation

Historic Weather in Tucson — Graph

°F

Tucson Temperature Yesterday

Maximum temperature yesterday: 69 °F (at 1:58 PM)
Minimum temperature yesterday: 45 °F (at 5:58 AM)
Average temperature yesterday: 57 °F

High & Low Weather Summary for the Past Weeks

 TemperatureHumidityPressure
High75 °F (Jan 30, 3:58 PM)92% (Feb 1, 1:58 AM)30.32 "Hg (Feb 1, 1:58 AM)
Low26 °F (Feb 3, 5:58 AM)6% (Feb 6, 4:58 PM)29.59 "Hg (Feb 1, 12:58 AM)
Average50 °F36%30.07 "Hg
* Reported Jan 24 12:58 AM — Feb 8 12:58 AM, Tucson, Weather by CustomWeather, © 2016

Note: Actual official high and low records may vary slightly from our data, if they occured in-between our weather recording intervals... More about our weather records

Advertising

Tucson Weather History for the Previous 24 Hours

 ConditionsComfort  
Time TempWeatherWind HumidityBarometerVisibility
12:58 AM
Mon, Feb 8
49 °FClear.2 mph28%30.11 "Hg10 mi
11:58 PM
Sun, Feb 7
48 °FClear.7 mph31%30.12 "Hg10 mi
10:58 PM49 °FClear.9 mph32%30.13 "Hg10 mi
9:58 PM49 °FClear.9 mph34%30.14 "Hg10 mi
8:58 PM51 °FClear.7 mph36%30.13 "Hg10 mi
7:58 PM54 °FClear.1 mph32%30.12 "Hg10 mi
6:58 PM58 °FClear.3 mph25%30.12 "Hg10 mi
5:58 PM62 °FSunny.3 mph20%30.10 "Hg10 mi
4:58 PM67 °FBroken clouds.8 mph16%30.08 "Hg10 mi
3:58 PM69 °FBroken clouds.7 mph13%30.05 "Hg10 mi
2:58 PM69 °FCloudy.7 mph12%30.05 "Hg10 mi
1:58 PM69 °FBroken clouds.8 mph12%30.06 "Hg10 mi
12:58 PM69 °FSunny.9 mph11%30.10 "Hg10 mi
11:58 AM66 °FSunny.7 mph13%30.13 "Hg10 mi
10:58 AM67 °FSunny.5 mph9%30.12 "Hg10 mi
9:58 AM60 °FSunny.12 mph13%30.13 "Hg10 mi
8:58 AM56 °FSunny.7 mph16%30.15 "Hg10 mi
7:58 AM51 °FSunny.10 mph18%30.15 "Hg10 mi
6:58 AM45 °FClear.No wind23%30.14 "Hg10 mi
5:58 AM45 °FClear.2 mph24%30.13 "Hg10 mi
4:58 AM50 °FClear.14 mph18%30.10 "Hg10 mi
3:58 AM50 °FClear.12 mph18%30.12 "Hg10 mi
2:58 AM51 °FClear.12 mph17%30.11 "Hg10 mi
Weather by CustomWeather, © 2016

See weather overviewHow to use our weather pages